Location: ??????
(55.2000°N, 38.3000°E)
Time: 18:27:18
(UTC+00:00)

CZ-2D R/B - Pass Details

Date: 15 November 2025
Orbit: 788 x 842 km, 98.9° (Epoch: 14 December)

Event Time Altitude Azimuth Distance (km) Brightness Sun altitude
Rises 02:13:39 0° 11° (N) 3,331 5.5 -23.3°
Reaches altitude 10° 02:16:34 10° 355° (N) 2,388 4.5 -22.9°
Enters shadow 02:18:07 16° 340° (NNW) 2,020 4.0 -22.7°
